Regional Weather Roundup
Issued by NWS Little Rock, AR

Home | Current Version | Previous Version | Text Only | Print | Product List | Glossary On
Versions: 1 2 3 4 5 6 7 8 9 10 11 12 13 14 15 16 17 18 19 20 21 22 23 24 25 26 27 28 29 30 31 32 33 34 35 36 37 38 39 40 41 42 43 44 45 46 47 48 49 50
000
ASUS44 KLZK 311505
RWRLZK

WEATHER ROUNDUP FOR ARKANSAS
NATIONAL WEATHER SERVICE LITTLE ROCK AR
1000 AM CDT FRI JUL 31 2015

NOTE: "FAIR" INDICATES FEW OR NO CLOUDS BELOW 12,000 FEET WITH NO
SIGNIFICANT WEATHER AND/OR OBSTRUCTIONS TO VISIBILITY.

ARZ001-003-010-029-311600-
NORTHWEST ARKANSAS

CITY           SKY/WX    TMP DP  RH WIND       PRES   REMARKS
FAYETTEVILLE   PTSUNNY   77  63  61 NE3       30.19S
FORT SMITH     MOSUNNY   82  65  56 E6        30.15S
HARRISON       MOSUNNY   78  65  63 VRB3      30.20F
BENTONVILLE    PTSUNNY   82  61  47 S7        30.20F
ROGERS         MOSUNNY   81  63  54 SE6       30.21R
SILOAM SPGS    PTSUNNY   79  63  57 E3        30.19S
HIGHFILL       CLOUDY    80  64  58 E6        30.20R
SPRINGDALE     MOSUNNY   81  64  57 E8        30.22R
$$

ARZ004-005-016-311600-
NORTH CENTRAL ARKANSAS

CITY           SKY/WX    TMP DP  RH WIND       PRES   REMARKS
BATESVILLE     SUNNY     79  68  69 CALM      30.15S
FLIPPIN        SUNNY     79  68  69 CALM      30.15S
MTN HOME       SUNNY     79  68  69 CALM      30.17S
$$

ARZ040-041-311600-
WEST CENTRAL ARKANSAS

CITY           SKY/WX    TMP DP  RH WIND       PRES   REMARKS
MENA           SUNNY     81  66  61 E6        30.18S
MOUNT IDA      SUNNY     79  70  74 CALM      30.14S
$$

ARZ009-017-025-026-028-311600-
NORTHEAST ARKANSAS

CITY           SKY/WX    TMP DP  RH WIND       PRES   REMARKS
JONESBORO      SUNNY     81  67  62 E8        30.13S
NEWPORT        SUNNY     82  68  62 NE8       30.14F HX  85
WALNUT RIDGE   SUNNY     81  64  57 N8        30.13S
BLYTHEVILLE    SUNNY     83  71  67 NE9       30.12S HX  87
$$

ARZ022-023-033-042-044-311600-
CENTRAL ARKANSAS

CITY           SKY/WX    TMP DP  RH WIND       PRES   REMARKS
LITTLE ROCK    PTSUNNY   85  63  47 NE8       30.13S HX  86
N LITTLE ROCK  PTSUNNY   87  65  47 NE10      30.13S HX  89
JACKSONVILLE   MOSUNNY   85  63  46 NE7       30.12F HX  86
SEARCY         SUNNY     84  67  56 N7        30.14F HX  86
HOT SPRINGS    SUNNY     86  60  41 E7        30.14S HX  86
RUSSELLVILLE   CLOUDY    80  64  58 CALM      30.15S
CLINTON        FAIR      82  70  65 CALM      30.16F HX  86
$$

ARZ036-311600-
EAST ARKANSAS

CITY           SKY/WX    TMP DP  RH WIND       PRES   REMARKS
WEST MEMPHIS   SUNNY     84  67  56 NE12      30.10F HX  86
$$

ARZ050-053-066-070-073-311600-
SOUTHWEST ARKANSAS

CITY           SKY/WX    TMP DP  RH WIND       PRES   REMARKS
ARKADELPHIA    FAIR      85  66  52 NE6       30.12F HX  87
CAMDEN         SUNNY     82  64  54 CALM      30.11S
TEXARKANA      SUNNY     81  65  58 VRB7      30.12F
EL DORADO      SUNNY     83  64  52 NE9       30.11S
DE QUEEN       SUNNY     82  66  58 E8        30.12S
$$

ARZ056-057-069-311600-
SOUTHEAST ARKANSAS

CITY           SKY/WX    TMP DP  RH WIND       PRES   REMARKS
PINE BLUFF     SUNNY     82  66  58 E8        30.11F
STUTTGART      SUNNY     81  66  61 MISG      30.11S
MONTICELLO     SUNNY     85  66  53 NE13      30.10S HX  87

$$




USA.gov is the U.S. government's official web portal to all federal, state and local government web resources and services.